TimeEST,TemperatureF,Dew PointF,Humidity,Sea Level PressureIn,VisibilityMPH,Wind Direction,Wind SpeedMPH,Gust SpeedMPH,PrecipitationIn,Events,Conditions,WindDirDegrees,DateUTC
12:15 AM,32.0,19.4,60,29.54,10.0,WNW,6.9,-,N/A,,Overcast,290,2013-03-04 05:15:00
12:35 AM,32.0,21.2,64,29.54,10.0,West,8.1,-,N/A,,Overcast,280,2013-03-04 05:35:00
12:55 AM,32.0,21.2,64,29.54,10.0,WNW,10.4,-,N/A,,Overcast,290,2013-03-04 05:55:00
1:15 AM,30.2,21.2,69,29.54,10.0,WNW,11.5,17.3,N/A,,Overcast,290,2013-03-04 06:15:00
1:35 AM,30.2,23.0,75,29.54,10.0,West,8.1,-,N/A,,Overcast,280,2013-03-04 06:35:00
1:55 AM,30.2,19.4,64,29.54,10.0,West,10.4,17.3,N/A,,Overcast,280,2013-03-04 06:55:00
2:35 AM,30.2,19.4,64,29.53,10.0,WNW,9.2,-,N/A,,Overcast,290,2013-03-04 07:35:00
2:55 AM,30.2,23.0,75,29.53,10.0,West,9.2,-,N/A,,Overcast,270,2013-03-04 07:55:00
3:15 AM,30.2,21.2,69,29.53,10.0,WNW,9.2,18.4,N/A,,Overcast,290,2013-03-04 08:15:00
3:55 AM,30.2,19.4,64,29.54,10.0,West,12.7,-,N/A,,Overcast,270,2013-03-04 08:55:00
4:35 AM,28.4,21.2,74,29.54,10.0,West,10.4,17.3,N/A,,Overcast,280,2013-03-04 09:35:00
4:55 AM,28.4,15.8,59,29.53,10.0,West,12.7,18.4,N/A,,Overcast,280,2013-03-04 09:55:00
5:15 AM,28.4,17.6,64,29.54,10.0,West,8.1,-,N/A,,Overcast,280,2013-03-04 10:15:00
5:35 AM,28.4,21.2,74,29.54,10.0,West,10.4,16.1,N/A,,Mostly Cloudy,280,2013-03-04 10:35:00
5:55 AM,28.4,17.6,64,29.54,10.0,WNW,10.4,-,N/A,,Clear,290,2013-03-04 10:55:00
6:15 AM,28.4,15.8,59,29.55,10.0,West,9.2,-,N/A,,Partly Cloudy,280,2013-03-04 11:15:00
6:55 AM,28.4,21.2,74,29.55,10.0,WNW,10.4,18.4,N/A,,Overcast,290,2013-03-04 11:55:00
7:15 AM,28.4,14.0,55,29.55,10.0,West,12.7,18.4,N/A,,Overcast,270,2013-03-04 12:15:00
7:35 AM,28.4,17.6,64,29.55,10.0,West,9.2,16.1,N/A,,Overcast,270,2013-03-04 12:35:00
7:55 AM,28.4,21.2,74,29.55,10.0,West,9.2,19.6,N/A,,Overcast,280,2013-03-04 12:55:00
8:15 AM,28.4,15.8,59,29.55,10.0,West,9.2,20.7,N/A,,Overcast,280,2013-03-04 13:15:00
8:35 AM,30.2,17.6,60,29.56,10.0,WNW,8.1,-,N/A,,Overcast,290,2013-03-04 13:35:00
8:55 AM,30.2,21.2,69,29.55,10.0,West,13.8,-,N/A,,Overcast,280,2013-03-04 13:55:00
9:15 AM,30.2,19.4,64,29.55,10.0,West,11.5,-,N/A,,Overcast,280,2013-03-04 14:15:00
9:35 AM,30.2,15.8,55,29.55,6.0,West,9.2,17.3,N/A,,Overcast,270,2013-03-04 14:35:00
9:55 AM,30.2,21.2,69,29.55,7.0,West,13.8,-,N/A,,Overcast,280,2013-03-04 14:55:00
10:15 AM,32.0,23.0,69,29.55,10.0,West,13.8,18.4,N/A,,Overcast,270,2013-03-04 15:15:00
10:35 AM,32.0,19.4,60,29.54,10.0,West,11.5,17.3,N/A,,Overcast,280,2013-03-04 15:35:00
10:55 AM,33.8,19.4,56,29.54,10.0,West,11.5,17.3,N/A,,Overcast,270,2013-03-04 15:55:00
11:15 AM,32.0,21.2,64,29.54,10.0,West,15.0,25.3,N/A,,Overcast,280,2013-03-04 16:15:00
11:35 AM,33.8,23.0,65,29.54,10.0,West,16.1,23.0,N/A,,Overcast,280,2013-03-04 16:35:00
11:55 AM,33.8,19.4,56,29.53,10.0,West,18.4,26.5,N/A,,Overcast,280,2013-03-04 16:55:00
12:15 PM,33.8,19.4,56,29.53,10.0,West,13.8,24.2,N/A,,Mostly Cloudy,280,2013-03-04 17:15:00
12:35 PM,33.8,19.4,56,29.52,10.0,West,13.8,19.6,N/A,,Overcast,280,2013-03-04 17:35:00
12:55 PM,33.8,21.2,60,29.52,10.0,West,18.4,24.2,N/A,,Overcast,280,2013-03-04 17:55:00
1:15 PM,33.8,21.2,60,29.52,10.0,West,21.9,28.8,N/A,,Overcast,280,2013-03-04 18:15:00
1:55 PM,35.6,17.6,48,29.52,10.0,WNW,15.0,25.3,N/A,,Overcast,300,2013-03-04 18:55:00
2:15 PM,35.6,19.4,52,29.52,10.0,WNW,17.3,24.2,N/A,,Overcast,300,2013-03-04 19:15:00
2:35 PM,35.6,19.4,52,29.53,10.0,WNW,16.1,23.0,N/A,,Mostly Cloudy,300,2013-03-04 19:35:00
2:55 PM,35.6,21.2,56,29.53,10.0,WNW,11.5,26.5,N/A,,Overcast,300,2013-03-04 19:55:00
3:15 PM,33.8,19.4,56,29.54,10.0,WNW,15.0,23.0,N/A,,Mostly Cloudy,290,2013-03-04 20:15:00
3:35 PM,33.8,19.4,56,29.54,10.0,WNW,11.5,-,N/A,,Overcast,300,2013-03-04 20:35:00
3:55 PM,33.8,19.4,56,29.54,10.0,WNW,16.1,24.2,N/A,,Overcast,300,2013-03-04 20:55:00
4:15 PM,33.8,19.4,56,29.55,10.0,WNW,13.8,21.9,N/A,,Overcast,300,2013-03-04 21:15:00
4:35 PM,33.8,19.4,56,29.56,10.0,WNW,11.5,21.9,N/A,,Overcast,300,2013-03-04 21:35:00
4:55 PM,33.8,23.0,65,29.57,10.0,NW,16.1,20.7,N/A,,Overcast,310,2013-03-04 21:55:00
5:15 PM,32.0,19.4,60,29.58,10.0,WNW,12.7,19.6,N/A,,Overcast,300,2013-03-04 22:15:00
5:35 PM,32.0,17.6,55,29.59,10.0,WNW,12.7,18.4,N/A,,Overcast,300,2013-03-04 22:35:00
5:55 PM,32.0,17.6,55,29.59,10.0,WNW,11.5,21.9,N/A,,Overcast,290,2013-03-04 22:55:00
6:35 PM,30.2,19.4,64,29.61,10.0,WNW,12.7,20.7,N/A,,Overcast,300,2013-03-04 23:35:00
6:55 PM,30.2,15.8,55,29.61,10.0,WNW,15.0,23.0,N/A,,Mostly Cloudy,300,2013-03-04 23:55:00
7:15 PM,30.2,15.8,55,29.62,10.0,WNW,12.7,19.6,N/A,,Partly Cloudy,300,2013-03-05 00:15:00
7:35 PM,30.2,19.4,64,29.62,10.0,WNW,15.0,19.6,N/A,,Scattered Clouds,300,2013-03-05 00:35:00
7:55 PM,30.2,19.4,64,29.63,10.0,NW,11.5,18.4,N/A,,Overcast,310,2013-03-05 00:55:00
8:15 PM,30.2,15.8,55,29.64,10.0,WNW,10.4,18.4,N/A,,Overcast,300,2013-03-05 01:15:00
8:35 PM,30.2,17.6,60,29.65,10.0,WNW,9.2,16.1,N/A,,Overcast,300,2013-03-05 01:35:00
8:55 PM,30.2,21.2,69,29.66,10.0,WNW,9.2,-,N/A,,Overcast,290,2013-03-05 01:55:00
9:15 PM,30.2,17.6,60,29.66,10.0,NW,11.5,-,N/A,,Overcast,310,2013-03-05 02:15:00
9:35 PM,30.2,17.6,60,29.67,10.0,NW,10.4,17.3,N/A,,Overcast,310,2013-03-05 02:35:00
9:55 PM,30.2,21.2,69,29.67,10.0,WNW,9.2,-,N/A,,Overcast,300,2013-03-05 02:55:00
10:15 PM,30.2,17.6,60,29.68,10.0,NW,8.1,-,N/A,,Overcast,310,2013-03-05 03:15:00
10:35 PM,30.2,17.6,60,29.68,10.0,WNW,10.4,-,N/A,,Overcast,300,2013-03-05 03:35:00
10:55 PM,30.2,21.2,69,29.68,10.0,WNW,9.2,-,N/A,,Overcast,300,2013-03-05 03:55:00
11:35 PM,30.2,17.6,60,29.69,10.0,WNW,10.4,-,N/A,,Overcast,300,2013-03-05 04:35:00
11:55 PM,30.2,19.4,64,29.69,10.0,WNW,10.4,-,N/A,,Overcast,300,2013-03-05 04:55:00